Location: Kershaw
(34.5481°N, 80.5823°W)
Time: 16:21:25
(UTC+00:00)

Courier 1B Rocket - Pass Details

Date: 05 October 2022
Orbit: 920 x 1202 km, 28.2° (Epoch: 08 December)

Event Time Altitude Azimuth Distance (km) Brightness Sun altitude
Rises 01:30:11 0° 260° (W) 3,740 8.9 -31.0°
Reaches altitude 10° 01:33:01 10° 255° (WSW) 2,748 8.0 -31.6°
Enters shadow 01:37:55 42° 219° (SW) 1,336 5.7 -32.5°
Maximum altitude 01:39:20 49° 182° (S) 1,205 - -32.8°
Drops below altitude 10° 01:45:22 10° 109° (ESE) 2,619 - -34.0°
Sets 01:48:00 0° 104° (ESE) 3,550 - -34.5°
